F4AMY-13 Weather Reports


time (UTC)temp
C
wind
direction
speed
KPH
gust
KPH
rain 1hr
cm
rain 24hr
cm
rain mn
cm
humidity
%
barometer
mb
20260507212307 10 257 0.0 0.0 0.00 0.00 9.91 86 1012.1
20260507211804 10 257 0.0 0.0 0.00 0.00 9.91 86 1012.0
20260507211304 10 259 0.0 0.0 0.00 0.00 9.91 85 1012.0
20260507210804 10 260 0.0 0.0 0.00 0.00 9.91 85 1012.0
20260507210304 10 260 0.0 0.0 0.00 0.00 9.91 85 1012.0
20260507205804 10 260 0.0 0.0 0.00 0.00 9.91 84 1012.0
20260507205306 11 260 0.0 0.0 0.00 0.00 9.91 84 1011.8
20260507204804 11 260 0.0 0.0 0.00 0.00 9.91 84 1011.7
20260507204304 11 260 0.0 0.0 0.00 0.00 9.91 84 1011.6
20260507203803 11 256 0.0 0.0 0.00 0.00 9.91 83 1011.7
20260507203303 11 256 0.0 0.0 0.00 0.00 9.91 83 1011.7
20260507202803 11 256 0.0 0.0 0.00 0.00 9.91 83 1011.7
20260507202306 11 256 0.0 0.0 0.00 0.00 9.91 82 1011.7
20260507201803 12 256 0.0 0.0 0.00 0.00 9.91 82 1011.5
20260507201303 12 256 0.0 0.0 0.00 0.00 9.91 81 1011.2
20260507200803 12 257 0.0 0.0 0.00 0.00 9.91 81 1011.4
20260507200303 12 257 0.0 0.0 0.00 0.00 9.91 81 1011.3
20260507195803 12 257 0.0 0.0 0.00 0.00 9.91 80 1011.4
20260507195305 12 257 0.0 0.0 0.00 0.00 9.91 80 1011.3
20260507194803 13 257 0.0 0.0 0.00 0.00 9.91 79 1011.4
20260507194303 13 257 0.0 0.0 0.00 0.00 9.91 78 1011.2
20260507193804 13 258 0.0 0.0 0.00 0.00 9.91 78 1011.1
20260507193303 13 256 0.0 0.0 0.00 0.00 9.91 77 1011.0
20260507192803 13 273 0.0 0.0 0.00 0.00 9.91 76 1011.3
20260507192306 13 257 0.0 0.0 0.00 0.00 9.91 75 1011.2
20260507191803 14 257 0.0 0.0 0.00 0.00 9.91 75 1011.2
20260507191302 14 254 0.0 0.0 0.00 0.00 9.91 74 1011.1
20260507190802 15 256 0.0 0.0 0.00 0.00 9.91 73 1011.1
20260507190303 15 257 0.0 0.0 0.00 0.00 9.91 73 1011.1
20260507185802 15 248 0.0 0.0 0.00 0.00 9.91 72 1011.1
20260507185305 15 254 0.0 0.0 0.00 0.00 9.91 71 1011.0
20260507184802 15 263 0.0 0.0 0.00 0.00 9.91 70 1010.9
20260507184302 15 245 0.0 0.0 0.00 0.00 9.91 69 1011.1
20260507183802 16 249 0.0 0.0 0.00 0.00 9.91 69 1011.3
20260507183302 16 248 0.0 0.0 0.00 0.00 9.91 68 1011.0
20260507182802 16 253 0.0 0.0 0.00 0.00 9.91 66 1011.1
20260507182302 16 268 0.0 0.0 0.00 0.00 9.91 66 1011.2
20260507181802 16 251 0.0 0.0 0.00 0.00 9.91 64 1010.9
20260507181302 16 254 0.0 0.0 0.00 0.00 9.91 63 1010.8
20260507180802 17 263 0.0 0.0 0.00 0.00 9.91 62 1010.9
20260507180302 17 256 0.0 0.0 0.00 0.00 9.91 61 1010.7
20260507175802 17 256 0.0 0.0 0.00 0.00 9.91 61 1010.7
20260507175301 17 234 0.0 0.0 0.00 0.00 9.91 59 1010.8
20260507174801 17 267 0.0 0.0 0.00 0.00 9.91 59 1010.8
20260507174301 17 238 0.0 0.0 0.00 0.00 9.91 58 1010.6
20260507173801 18 314 0.0 0.0 0.00 0.00 9.91 58 1010.6
20260507173301 18 253 0.0 0.0 0.00 0.00 9.91 58 1010.7
20260507172801 18 253 0.0 11.3 0.00 0.00 9.91 57 1010.6
20260507172301 19 258 0.0 0.0 0.00 0.00 9.91 58 1010.6
20260507171801 20 270 0.0 11.3 0.00 0.00 9.91 54 1010.7
20260507171301 21 261 0.0 0.0 0.00 0.00 9.91 52 1010.7
20260507170801 21 227 0.0 0.0 0.00 0.00 9.91 54 1010.7
20260507170301 22 275 0.0 0.0 0.00 0.00 9.91 50 1010.6
20260507165801 22 244 0.0 0.0 0.00 0.00 9.91 51 1010.6
20260507165301 22 261 0.0 0.0 0.00 0.00 9.91 46 1010.6
20260507164801 23 256 0.0 0.0 0.00 0.00 9.91 45 1011.0
20260507164301 23 263 0.0 0.0 0.00 0.00 9.91 45 1010.7
20260507163801 23 270 0.0 0.0 0.00 0.00 9.91 45 1010.8
20260507163300 23 256 8.0 24.1 0.00 0.00 9.91 43 1010.8
20260507162800 24 297 0.0 11.3 0.00 0.00 9.91 43 1010.8
20260507162300 24 20 0.0 0.0 0.00 0.00 9.91 43 1010.7
20260507161800 24 216 0.0 0.0 0.00 0.00 9.91 43 1010.9
20260507161300 25 245 0.0 11.3 0.00 0.00 9.91 42 1010.5
20260507160800 25 244 0.0 0.0 0.00 0.00 9.91 43 1010.5
20260507160300 25 282 4.8 11.3 0.00 0.00 9.91 40 1010.7
20260507155800 25 248 0.0 0.0 0.00 0.00 9.91 43 1010.7
20260507155300 25 211 0.0 11.3 0.00 0.00 9.91 44 1010.7
20260507154800 25 262 6.4 11.3 0.00 0.00 9.91 40 1010.6
20260507154300 25 291 0.0 0.0 0.00 0.00 9.91 40 1010.5
20260507153846 25 237 0.0 11.3 0.00 0.00 9.91 41 10.1
20260507153800 25 237 0.0 11.3 0.00 0.00 9.91 41 1010.6
20260507153457 25 349 0.0 11.3 0.00 0.00 9.91 39 1010.7
20260507153300 25 349 0.0 11.3 0.00 0.00 9.91 39 1010.7
20260507152841 25 217 0.0 11.3 0.00 0.00 9.91 43 1010.6
20260507152800 25 274 0.0 0.0 0.00 0.00 9.91 39 1010.5
20260507152300 25 217 0.0 11.3 0.00 0.00 9.91 43 1010.6
20260507151800 25 262 0.0 0.0 0.00 0.00 9.91 40 1010.6
20260507151300 26 241 0.0 11.3 0.00 0.00 9.91 37 1010.7
20260507150800 26 233 0.0 0.0 0.00 0.00 9.91 42 1010.6
20260507150259 26 347 0.0 0.0 0.00 0.00 9.91 40 1010.8
20260507145759 26 282 12.9 37.0 0.00 0.00 9.91 38 1010.7
20260507145259 25 357 4.8 11.3 0.00 0.00 9.91 36 1010.9
20260507144759 25 227 6.4 11.3 0.00 0.00 9.91 36 1010.6
20260507144259 25 274 14.5 24.1 0.00 0.00 9.91 35 1010.6
20260507143759 25 235 0.0 0.0 0.00 0.00 9.91 40 1010.9
20260507143259 25 244 0.0 11.3 0.00 0.00 9.91 39 1010.8
20260507142759 25 259 0.0 0.0 0.00 0.00 9.91 38 1010.9
20260507142259 25 219 0.0 0.0 0.00 0.00 9.91 38 1010.9
20260507141759 25 277 0.0 0.0 0.00 0.00 9.91 40 1010.8
20260507141259 24 245 0.0 11.3 0.00 0.00 9.91 44 1011.0
20260507140759 24 237 4.8 11.3 0.00 0.00 9.91 42 1011.0
20260507140259 23 249 0.0 0.0 0.00 0.00 9.91 40 1011.0
20260507135759 23 259 0.0 11.3 0.00 0.00 9.91 44 1010.9
20260507135259 23 244 0.0 0.0 0.00 0.00 9.91 45 1011.0
20260507134759 24 271 0.0 0.0 0.00 0.00 9.91 43 1010.9
20260507134259 24 197 0.0 11.3 0.00 0.00 9.91 42 1011.1
20260507133759 24 256 4.8 24.1 0.00 0.00 9.91 42 1010.9
20260507133258 24 214 0.0 11.3 0.00 0.00 9.91 41 1011.2
20260507132758 24 191 1.6 11.3 0.00 0.00 9.91 40 1011.1
20260507132258 24 238 0.0 11.3 0.00 0.00 9.91 41 1011.1
20260507131758 24 265 0.0 11.3 0.00 0.00 9.91 43 1011.1
20260507131258 24 252 3.2 11.3 0.00 0.00 9.91 45 1011.1
20260507130758 23 329 0.0 0.0 0.00 0.00 9.91 45 1011.0
20260507130258 24 205 0.0 11.3 0.00 0.00 9.91 45 1011.1
20260507125758 24 248 0.0 0.0 0.00 0.00 9.91 44 1011.1
20260507125258 24 278 0.0 0.0 0.00 0.00 9.91 45 1011.3
20260507124758 24 269 0.0 0.0 0.00 0.00 9.91 51 1011.2
20260507124437 23 250 11.3 24.1 0.00 0.00 9.91 47 1011.0
20260507124258 23 250 11.3 24.1 0.00 0.00 9.91 47 1011.0
20260507123933 23 219 0.0 11.3 0.00 0.00 9.91 46 1011.0
20260507123758 23 219 0.0 11.3 0.00 0.00 9.91 46 1011.0
20260507123258 23 273 0.0 0.0 0.00 0.00 9.91 46 1011.0
20260507122758 23 229 4.8 11.3 0.00 0.00 9.91 46 1010.9
20260507122300 23 295 8.0 24.1 0.00 0.00 9.91 45 1011.1
20260507122258 23 295 8.0 24.1 0.00 0.00 9.91 45 1011.1
20260507121758 23 244 11.3 24.1 0.00 0.00 9.91 48 1010.9
20260507121258 23 225 0.0 0.0 0.00 0.00 9.91 45 1010.8
20260507120757 23 162 6.4 11.3 0.00 0.00 9.91 44 1011.0
20260507120257 23 196 0.0 11.3 0.00 0.00 9.91 42 1011.0
20260507115758 23 249 0.0 11.3 0.00 0.00 9.91 53 1010.8
20260507115257 23 249 0.0 11.3 0.00 0.00 9.91 53 1010.8
20260507114757 23 212 0.0 0.0 0.00 0.00 9.91 41 1011.0
20260507114257 23 231 0.0 0.0 0.00 0.00 9.91 45 1011.0
20260507113758 23 161 0.0 11.3 0.00 0.00 9.91 42 1011.0
20260507113258 23 270 11.3 24.1 0.00 0.00 9.91 45 1010.8
20260507112757 22 243 0.0 0.0 0.00 0.00 9.91 43 1010.8
20260507112257 22 302 4.8 11.3 0.00 0.00 9.91 41 1010.7
20260507111757 22 257 0.0 0.0 0.00 0.00 9.91 43 1011.0
20260507111257 22 191 0.0 11.3 0.00 0.00 9.91 44 1011.1
20260507110757 22 235 4.8 11.3 0.00 0.00 9.91 44 1010.8
20260507110257 22 251 0.0 11.3 0.00 0.00 9.91 43 1010.9
20260507105757 21 211 6.4 24.1 0.00 0.00 9.91 45 1011.1
20260507105257 21 259 0.0 0.0 0.00 0.00 9.91 45 1011.1
20260507104756 21 280 0.0 0.0 0.00 0.00 9.91 46 1011.2
20260507104256 21 283 6.4 24.1 0.00 0.00 9.91 47 1011.2
20260507103756 21 245 0.0 0.0 0.00 0.00 9.91 50 1011.4
20260507103256 20 267 0.0 0.0 0.00 0.00 9.91 52 1011.3
20260507102756 20 287 0.0 0.0 0.00 0.00 9.91 52 1011.4
20260507102256 20 337 0.0 11.3 0.00 0.00 9.91 49 1011.5
20260507101756 20 327 0.0 0.0 0.00 0.00 9.91 51 1011.4
20260507101256 20 226 0.0 0.0 0.00 0.00 9.91 57 1011.3
20260507100756 20 280 1.6 11.3 0.00 0.00 9.91 52 1011.3
20260507100256 19 282 0.0 11.3 0.00 0.00 9.91 50 1011.6
20260507095756 19 298 0.0 0.0 0.00 0.00 9.91 55 1011.6
20260507095256 19 243 0.0 0.0 0.00 0.00 9.91 52 1011.7
20260507094756 18 261 0.0 0.0 0.00 0.00 9.91 59 1011.6
20260507094256 18 338 0.0 0.0 0.00 0.00 9.91 57 1011.5
20260507093756 18 224 1.6 11.3 0.00 0.00 9.91 53 1011.7
20260507093256 18 217 0.0 0.0 0.00 0.00 9.91 47 1011.8
20260507092756 18 259 11.3 24.1 0.00 0.00 9.91 50 1011.8
20260507092256 18 197 0.0 0.0 0.00 0.00 9.91 57 1011.6
20260507091755 17 292 0.0 0.0 0.00 0.00 9.91 57 1011.8
20260507091255 17 322 0.0 0.0 0.00 0.00 9.91 59 1011.5
20260507090755 17 242 0.0 0.0 0.00 0.00 9.91 57 1011.7
20260507090255 17 353 0.0 0.0 0.00 0.00 9.91 61 1011.6
20260507085755 17 246 0.0 0.0 0.00 0.00 9.91 61 1011.6
20260507085255 17 338 0.0 0.0 0.00 0.00 9.91 61 1011.5
20260507084755 17 210 0.0 0.0 0.00 0.00 9.91 61 1011.6
20260507084255 17 232 0.0 11.3 0.00 0.00 9.91 62 1011.6
20260507083755 16 211 0.0 0.0 0.00 0.00 9.91 63 1011.6
20260507083255 16 259 0.0 11.3 0.00 0.00 9.91 65 1011.7
20260507082755 16 207 3.2 11.3 0.00 0.00 9.91 65 1011.9
20260507082255 16 225 0.0 0.0 0.00 0.00 9.91 66 1011.6
20260507081755 16 294 0.0 0.0 0.00 0.00 9.91 69 1011.4
20260507081255 15 328 0.0 0.0 0.00 0.00 9.91 71 1011.6
20260507080755 15 313 0.0 0.0 0.00 0.00 9.91 73 1011.4
20260507080255 15 250 0.0 11.3 0.00 0.00 9.91 72 1011.7
20260507075754 15 224 0.0 0.0 0.00 0.00 9.91 72 1011.5
20260507075254 15 244 0.0 0.0 0.00 0.00 9.91 74 1011.4
20260507074754 14 245 0.0 0.0 0.00 0.00 9.91 74 1011.6
20260507074254 13 268 0.0 0.0 0.00 0.00 9.91 76 1011.7
20260507073754 13 263 0.0 0.0 0.00 0.00 9.91 78 1011.6
20260507073254 13 254 0.0 0.0 0.00 0.00 9.91 79 1011.7
20260507072754 12 254 0.0 0.0 0.00 0.00 9.91 81 1011.5
20260507072254 12 260 0.0 0.0 0.00 0.00 9.91 87 1011.4
20260507071754 12 283 0.0 0.0 0.00 0.00 9.91 92 1011.6
20260507071254 12 265 0.0 0.0 0.00 0.00 9.91 93 1011.5
20260507070754 12 261 0.0 0.0 0.00 0.00 9.91 93 1011.5
20260507070254 12 266 0.0 0.0 0.00 0.00 9.91 94 1011.5
20260507065754 11 275 0.0 0.0 0.00 0.00 9.91 94 1011.4
20260507065254 11 261 0.0 0.0 0.00 0.00 9.91 94 1011.3
20260507064754 11 263 0.0 0.0 0.00 0.00 9.91 94 1011.6
20260507064254 11 256 0.0 0.0 0.00 0.00 9.91 94 1011.5
20260507063754 11 261 0.0 0.0 0.00 0.00 9.91 94 1011.2
20260507063253 11 261 0.0 0.0 0.00 0.00 9.91 94 1011.5
20260507062753 10 262 0.0 0.0 0.00 0.00 9.91 94 1011.2
20260507062253 10 263 0.0 0.0 0.00 0.00 9.91 94 1011.5
20260507061753 10 266 0.0 0.0 0.00 0.00 9.91 94 1011.5
20260507061253 10 267 0.0 0.0 0.00 0.00 9.91 94 1011.5
20260507060753 10 268 0.0 0.0 0.00 0.00 9.91 94 1011.4
20260507060253 9 276 0.0 0.0 0.00 0.00 9.91 94 1011.4
20260507055753 9 268 0.0 0.0 0.00 0.00 9.91 94 1011.4
20260507055253 9 268 0.0 0.0 0.00 0.00 9.91 94 1011.4
20260507054753 8 267 0.0 0.0 0.00 0.00 9.91 94 1011.4
20260507054253 8 266 0.0 0.0 0.00 0.00 9.91 94 1011.3
20260507053753 8 265 0.0 0.0 0.00 0.00 9.91 94 1011.3
20260507053253 8 269 0.0 0.0 0.00 0.00 9.91 94 1011.2
20260507052753 8 268 0.0 0.0 0.00 0.00 9.91 94 1011.2
20260507052253 8 267 0.0 0.0 0.00 0.00 9.91 94 1011.3
20260507051753 8 268 0.0 0.0 0.00 0.00 9.91 94 1011.3
20260507051253 8 269 0.0 0.0 0.00 0.00 9.91 94 1011.2
20260507050752 8 265 0.0 0.0 0.00 0.00 9.91 94 1011.1
20260507050252 8 265 0.0 0.0 0.00 0.00 9.91 94 1011.1
20260507045752 8 264 0.0 0.0 0.00 0.00 9.91 94 1011.0
20260507045252 8 268 0.0 0.0 0.00 0.00 9.91 94 1010.9
20260507044752 8 290 0.0 0.0 0.00 0.00 9.91 94 1011.1
20260507044252 8 258 0.0 0.0 0.00 0.00 9.91 93 1011.1
20260507043752 8 258 0.0 0.0 0.00 0.00 9.91 93 1011.1
20260507043252 8 258 0.0 0.0 0.00 0.00 9.91 93 1011.0
20260507042752 8 258 0.0 0.0 0.00 0.00 9.91 93 1011.2
20260507042252 8 263 0.0 0.0 0.00 0.00 9.91 93 1010.9
20260507041752 8 263 0.0 0.0 0.00 0.00 9.91 93 1010.9
20260507041252 8 260 0.0 0.0 0.00 0.00 9.91 93 1010.7
20260507040752 8 261 0.0 0.0 0.00 0.00 9.91 93 1011.0
20260507040252 8 264 0.0 0.0 0.00 0.00 9.91 93 1010.8
20260507035752 8 264 0.0 0.0 0.00 0.00 9.91 93 1010.9
20260507035252 9 267 0.0 0.0 0.00 0.00 9.91 93 1011.1
20260507034752 9 260 0.0 0.0 0.00 0.00 9.91 93 1010.7
20260507034252 9 260 0.0 0.0 0.00 0.00 9.91 93 1010.7
20260507033751 9 259 0.0 0.0 0.00 0.00 9.91 93 1010.9
20260507033251 9 254 0.0 0.0 0.00 0.00 9.91 93 1010.9
20260507032751 9 254 0.0 0.0 0.00 0.00 9.91 93 1010.8
20260507032251 9 264 0.0 0.0 0.00 0.00 9.91 93 1010.7
20260507031751 9 252 0.0 0.0 0.00 0.00 9.91 93 1010.8
20260507031251 9 262 0.0 0.0 0.00 0.00 9.91 93 1010.9
20260507030751 9 262 0.0 0.0 0.00 0.00 9.91 93 1010.8
20260507030251 9 264 0.0 0.0 0.00 0.00 9.91 93 1010.9
20260507025751 9 257 0.0 0.0 0.00 0.00 9.91 93 1010.9
20260507025251 9 264 0.0 0.0 0.00 0.00 9.91 93 1010.7
20260507024751 9 324 0.0 0.0 0.00 0.00 9.91 93 1010.8
20260507024251 10 263 0.0 0.0 0.00 0.00 9.91 93 1010.6
20260507023751 10 260 0.0 0.0 0.00 0.00 9.91 93 1010.7
20260507023251 10 259 0.0 0.0 0.00 0.00 9.91 92 1010.6
20260507022751 10 261 0.0 0.0 0.00 0.00 9.91 92 1010.7
20260507022250 10 259 0.0 0.0 0.00 0.00 9.91 92 1010.7
20260507021750 10 259 0.0 0.0 0.00 0.00 9.91 92 1010.8
20260507021250 10 259 0.0 0.0 0.00 0.00 9.91 92 1010.7
20260507020750 10 259 0.0 0.0 0.00 0.00 9.91 92 1010.9
20260507020250 10 259 0.0 0.0 0.00 0.00 9.91 92 1010.8
20260507015750 10 259 0.0 0.0 0.00 0.00 9.91 92 1010.8
20260507015250 10 259 0.0 0.0 0.00 0.00 9.91 92 1010.8
20260507014750 11 259 0.0 0.0 0.00 0.00 9.91 92 1010.7
20260507014250 11 261 0.0 0.0 0.00 0.00 9.91 92 1011.0
20260507013750 11 261 0.0 0.0 0.00 0.00 9.91 92 1011.1
20260507013250 11 258 0.0 0.0 0.00 0.00 9.91 92 1011.0
20260507012750 11 257 0.0 0.0 0.00 0.00 9.91 92 1010.9
20260507012250 11 261 0.0 0.0 0.00 0.00 9.91 92 1010.9
20260507011750 11 261 0.0 0.0 0.00 0.00 9.91 92 1010.8
20260507011250 11 261 0.0 0.0 0.00 0.00 9.91 92 1011.0
20260507010750 11 261 0.0 0.0 0.00 0.00 9.91 92 1010.9
20260507010250 11 253 0.0 0.0 0.00 0.00 9.91 92 1011.0
20260507005749 11 263 0.0 0.0 0.00 0.00 9.91 91 1010.9
20260507005249 11 263 0.0 0.0 0.00 0.00 9.91 91 1011.0
20260507004749 11 264 0.0 0.0 0.00 0.00 9.91 91 1011.3
20260507004249 11 259 0.0 0.0 0.00 0.00 9.91 91 1011.0
20260507003749 11 259 0.0 0.0 0.00 0.00 9.91 91 1010.9
20260507003249 11 259 0.0 0.0 0.00 0.00 9.91 91 1011.2
20260507002749 11 259 0.0 0.0 0.00 0.00 9.91 91 1011.3
20260507002249 11 259 0.0 0.0 0.00 0.00 9.91 90 1011.3
20260507001749 11 259 0.0 0.0 0.00 0.00 9.91 90 1011.1
20260507001249 11 259 0.0 0.0 0.00 0.00 9.91 90 1011.2
20260507000749 11 259 0.0 0.0 0.00 0.00 9.91 90 1011.1
20260507000249 11 259 0.0 0.0 0.00 0.00 9.91 90 1011.2
20260506235749 11 259 0.0 0.0 0.00 0.00 9.91 90 1011.3
20260506235249 12 259 0.0 0.0 0.00 0.00 9.91 89 1011.2
20260506234749 12 259 0.0 0.0 0.00 0.00 9.91 89 1011.2
20260506234249 12 259 0.0 0.0 0.00 0.00 9.91 90 1011.3
20260506233749 12 259 0.0 0.0 0.00 0.00 9.91 89 1011.3
20260506233248 12 263 0.0 0.0 0.00 0.00 9.91 89 1011.4
20260506232748 12 261 0.0 0.0 0.00 0.00 9.91 89 1011.3
20260506232248 12 266 0.0 0.0 0.00 0.00 9.91 89 1011.5
20260506231748 12 256 0.0 0.0 0.00 0.00 9.91 89 1011.4
20260506231248 12 248 0.0 0.0 0.00 0.00 9.91 89 1011.5
20260506230748 12 252 0.0 0.0 0.00 0.00 9.91 89 1011.5
20260506230248 12 255 0.0 0.0 0.00 0.00 9.91 89 1011.4
20260506225748 12 261 0.0 0.0 0.00 0.00 9.91 89 1011.7
20260506225248 12 257 0.0 0.0 0.00 0.00 9.91 89 1011.4
20260506224748 12 262 0.0 0.0 0.00 0.00 9.91 89 1011.6
20260506224248 12 274 0.0 0.0 0.00 0.00 9.91 89 1011.7
20260506223748 12 242 0.0 0.0 0.00 0.00 9.91 88 1011.5
20260506223248 12 263 0.0 0.0 0.00 0.00 9.91 89 1011.3
20260506222748 12 266 0.0 0.0 0.00 0.00 9.91 89 1011.6
20260506222248 12 258 0.0 0.0 0.00 0.00 9.91 88 1011.5
20260506221747 12 265 0.0 0.0 0.00 0.00 9.91 88 1011.4
20260506221247 12 248 0.0 0.0 0.00 0.00 9.91 88 1011.4
20260506220747 12 271 0.0 0.0 0.00 0.00 9.91 88 1011.6
20260506220247 12 246 0.0 0.0 0.00 0.00 9.91 87 1011.5
20260506215747 12 252 0.0 0.0 0.00 3.73 9.91 87 1011.7
20260506215247 12 256 0.0 0.0 0.00 3.73 9.91 87 1011.4
20260506214747 12 254 0.0 0.0 0.00 3.73 9.91 86 1011.5
20260506214247 12 261 0.0 0.0 0.00 3.73 9.91 86 1011.6
20260506213747 12 259 0.0 0.0 0.00 3.73 9.91 85 1011.4
20260506213247 12 249 0.0 0.0 0.00 3.73 9.91 85 1011.4
20260506212747 12 273 0.0 0.0 0.00 3.73 9.91 84 1011.3